EHI
4 4 4 5 7 8 6 5 3 1 1 2 4 5 4 3 2 2 1 0 0 0 0 0 0 0 0 0 0 0 0 0 0 0 0 0 0 0
3 3 4 5 7 8 6 4 3 2 1 2 3 4 4 3 2 2 1 0 0 0 0 0 0 0 0 0 0 0 0 0 0 0 0 0 0 0
1 2 3 5 7 7 5 4 5 4 3 2 3 4 4 3 3 3 2 1 0 0 0 0 0 0 0 0 0 0 0 0 0 0 0 0 0 0
0 1 1 3 5 6 5 4 5 6 6 5 4 3 3 3 3 3 3 2 1 0 0 0 0 0 0 0 0 0 0 0 0 0 0 0 0 0
0 0 0 1 3 4 3 2 2 5 6 6 4 2 1 3 3 3 3 2 1 0 0 0 0 0 0 0 0 0 0 0 0 0 0 0 0 0
1 1 0 0 1 1 1 0 0 2 3 4 3 1 1 3 3 3 3 3 2 1 0 0 0 0 0 0 0 0 0 0 0 0 0 0 0 0
1 1 0 0 0 0 0 0 0 1 2 3 2 1 2 3 3 3 3 3 3 2 1 1 0 0 0 0 0 0 0 0 0 0 0 0 0 0
2 2 1 0 0 0 0 0 0 0 1 2 1 1 2 3 3 3 3 3 3 3 3 2 1 0 0 0 0 0 0 0 0 0 0 0 0 0
3 2 1 0 0 0 0 0 0 0 1 2 2 2 3 3 3 3 3 3 3 3 3 3 2 1 0 0 0 0 0 0 0 0 0 0 0 0
3 3 1 0 0 0 0 0 1 1 0 1 2 2 2 2 3 3 3 3 3 3 3 3 3 2 0 0 0 0 0 0 0 0 0 0 0 0
3 3 2 0 0 0 0 1 2 2 1 0 1 1 1 1 1 2 3 3 3 3 3 2 2 1 0 0 0 0 0 0 0 0 0 0 0 0
3 3 2 0 0 0 1 2 3 3 2 1 1 1 1 1 0 1 3 3 3 3 2 1 0 0 0 1 1 1 0 0 0 0 0 0 0 0
3 3 2 1 0 0 1 2 2 3 3 3 2 2 2 1 0 1 2 3 3 3 2 1 1 1 0 1 2 2 1 1 0 0 0 0 0 0
3 3 2 1 0 0 0 1 1 2 3 3 3 3 3 2 0 0 1 3 3 3 3 2 2 2 1 1 2 3 3 2 1 1 0 0 0 0
2 1 1 0 0 0 0 0 0 1 2 3 3 3 2 1 0 0 1 2 3 3 3 3 3 3 3 2 3 3 3 3 3 2 1 0 0 0
1 0 0 0 0 0 0 0 0 1 1 3 3 2 2 1 0 0 0 1 1 2 3 3 3 3 3 3 3 3 3 3 3 3 2 1 1 0
0 0 0 0 0 0 0 0 0 0 1 2 2 2 2 2 1 0 0 0 0 1 2 3 3 3 3 3 3 3 3 3 3 3 3 3 2 1
0 0 0 0 0 0 0 0 0 0 0 1 1 1 1 1 1 0 0 0 0 0 1 1 3 3 3 2 2 2 3 3 3 3 3 3 3 3
0 0 0 0 0 0 0 0 0 0 0 0 0 0 0 0 0 0 0 0 0 0 0 1 2 3 2 1 0 1 2 3 3 3 3 3 3 3
0 0 0 0 0 0 0 0 0 0 0 0 0 0 0 0 0 0 0 0 0 0 0 1 2 2 2 1 1 1 1 2 3 3 3 3 2 1
0 0 0 0 0 0 0 0 0 0 0 0 0 0 0 0 0 0 0 0 0 0 0 0 1 1 2 3 2 1 1 1 1 2 2 2 1 0
0 0 0 0 0 0 0 0 0 0 0 0 0 0 0 0 0 0 0 0 0 0 0 0 0 1 2 3 3 2 0 0 0 1 1 1 0 0
0 0 0 0 0 0 0 0 0 0 0 0 0 0 0 0 0 0 0 0 0 0 0 0 0 0 1 3 3 2 1 0 0 0 0 0 0 0
Wind_Speed
3 3 3 2 3 3 3 4 4 4 3 2 2 2 2 2 1 3 3 2 3 4 4 5 5 6 7 7 8 9 9 10 10 11 13 14 14 14
2 2 3 3 2 3 3 4 4 5 4 2 2 2 2 2 2 3 4 3 6 6 6 5 6 6 7 7 8 7 7 8 9 10 12 13 14 14
3 3 3 3 2 2 3 3 4 4 4 3 2 1 2 3 2 3 4 5 4 7 6 6 6 6 7 7 7 7 7 8 8 9 10 11 12 12
3 3 3 2 3 3 3 3 3 3 4 4 3 3 2 3 3 4 4 4 4 4 6 7 7 7 8 8 8 8 8 8 8 9 9 9 10 11
2 3 3 3 3 2 3 4 3 3 3 4 4 3 2 2 3 4 5 4 6 3 6 8 8 8 8 8 9 9 8 8 8 8 8 8 8 9
2 2 2 2 2 2 3 3 4 3 3 4 3 3 2 3 3 3 4 3 4 5 3 4 5 8 9 9 9 8 7 7 7 7 7 7 7 8
2 1 1 1 2 2 3 3 3 3 3 3 3 3 3 3 3 4 4 4 4 4 4 4 4 5 5 8 9 8 6 6 6 7 7 6 7 7
1 1 2 3 3 1 1 2 3 3 4 4 4 3 4 4 4 4 5 5 4 3 5 5 4 4 4 4 3 6 7 6 6 6 6 6 7 7
1 1 1 0 1 1 2 3 1 2 3 4 4 5 5 4 4 5 4 5 5 5 5 6 5 5 4 2 4 5 6 6 6 6 7 7 7 7
1 1 1 1 1 1 1 1 1 1 1 2 3 4 4 5 5 5 6 6 6 4 4 6 5 5 5 3 4 6 7 7 7 7 7 7 7 8
0 0 0 0 2 1 1 1 1 0 2 2 1 2 3 4 5 5 5 5 5 3 3 5 5 5 5 4 3 8 8 9 9 9 9 8 8 8
1 2 2 1 2 1 2 1 2 2 2 1 3 5 5 4 5 5 5 5 5 4 2 4 5 5 5 4 4 3 5 8 10 10 10 9 8 6
0 0 2 4 2 1 2 2 2 4 4 4 3 2 2 2 3 3 3 5 5 5 3 4 5 5 5 6 5 5 4 4 5 6 9 10 9 8
1 0 2 3 1 2 2 2 3 5 4 3 2 2 3 3 2 3 3 4 5 7 6 6 5 6 6 7 6 5 4 5 5 5 5 6 9 11
1 3 2 3 4 4 4 5 5 4 2 2 3 3 3 3 3 3 4 5 6 7 6 6 6 6 7 7 7 6 5 5 4 5 5 5 4 5
2 3 5 5 5 2 3 3 3 2 3 3 3 3 3 3 3 4 4 4 4 4 4 6 6 7 7 8 7 6 6 5 5 5 5 5 5 5
1 2 2 2 1 1 1 1 2 2 2 2 3 3 3 3 4 4 4 5 5 5 4 4 5 5 7 7 7 6 6 6 5 5 5 6 5 5
3 2 1 1 2 2 1 1 2 2 2 3 3 4 4 4 4 4 4 5 5 5 5 5 5 5 6 5 5 7 6 6 6 5 5 6 6 5
4 2 2 2 2 2 2 2 2 2 3 3 4 4 4 5 5 5 5 5 5 6 5 5 5 6 7 7 5 5 7 6 6 5 5 6 6 5
3 2 2 2 2 2 2 3 3 2 2 3 4 4 5 5 5 5 5 6 6 6 6 6 5 6 7 8 7 6 6 7 6 6 6 6 5 4
2 2 2 2 2 2 2 3 3 3 3 4 4 4 5 5 6 6 6 6 7 6 7 6 5 7 7 7 7 6 4 5 5 6 7 7 6 5
2 2 2 3 3 3 2 3 3 3 3 4 4 4 5 5 6 7 7 6 6 6 7 6 6 6 6 7 7 7 5 4 3 5 6 6 6 6
2 2 2 3 3 3 3 3 4 3 3 4 4 5 5 6 6 6 6 6 6 6 6 6 5 5 6 6 6 6 6 5 4 3 3 3 6 6
Wind_Direction
211 211 227 229 243 250 255 260 267 272 262 219 232 222 243 257 188 245 257 170 201 228 245 254 255 253 252 250 251 248 246 242 242 245 240 237 236 235
221 224 231 230 233 244 251 255 259 269 273 266 260 262 276 270 214 251 254 208 222 222 231 244 255 257 255 251 251 249 248 245 242 245 243 240 237 235
222 218 227 244 245 251 251 256 256 260 258 266 274 279 259 270 264 264 263 260 243 199 213 234 250 258 254 247 249 247 245 244 243 245 244 241 237 235
237 233 233 228 232 252 260 262 260 265 263 271 282 278 271 274 275 274 272 272 280 194 198 224 240 249 250 243 244 243 242 241 241 245 244 242 238 234
243 239 244 245 248 259 264 265 266 261 266 265 272 291 288 281 274 268 272 271 273 233 200 214 229 242 248 239 238 238 238 240 238 240 241 240 237 234
236 241 256 254 254 263 263 269 275 275 263 264 270 277 280 279 272 275 279 276 283 291 286 260 228 224 237 231 227 227 229 234 235 236 237 236 235 234
214 211 205 78 26 329 306 299 287 276 274 274 278 281 295 300 290 288 289 292 291 294 297 286 261 254 237 222 214 213 219 227 229 231 233 234 236 236
222 209 190 172 140 135 16 358 322 295 302 300 296 305 306 304 307 293 295 295 298 312 302 292 287 282 279 272 179 182 203 217 226 229 231 232 235 238
261 272 287 43 188 213 174 188 217 258 268 290 305 310 305 311 306 300 301 298 299 303 295 291 291 287 284 297 151 183 201 215 225 232 235 235 237 240
273 256 242 298 350 331 293 297 304 314 262 264 295 304 310 312 299 287 286 277 267 265 273 282 287 288 290 278 175 190 207 218 226 232 234 234 237 242
224 349 285 165 53 9 268 283 294 264 158 168 256 274 294 292 290 287 285 282 285 288 282 287 295 298 293 282 221 197 212 219 224 229 232 234 236 243
156 137 98 85 60 345 263 273 291 309 312 266 226 227 240 235 232 259 284 289 293 293 302 290 293 298 291 283 286 255 232 220 223 228 230 229 227 242
281 141 106 121 123 302 286 290 303 297 284 278 272 270 257 250 248 254 278 286 292 291 306 297 294 294 291 294 292 284 273 268 246 238 225 220 217 227
298 334 97 121 146 245 258 288 278 268 268 277 288 297 301 302 309 302 292 286 284 286 294 292 287 291 289 286 288 288 277 271 267 268 264 211 211 221
39 77 130 191 207 213 217 237 246 256 281 292 303 311 311 314 298 279 265 262 263 266 268 267 271 279 281 282 284 286 286 280 268 270 269 262 250 233
181 147 179 208 223 230 210 220 246 298 307 303 305 306 305 294 284 286 283 280 277 271 257 262 265 274 278 281 283 284 284 285 282 273 271 268 260 251
289 233 223 203 218 233 244 268 270 266 276 295 297 296 297 296 290 287 287 289 290 294 291 273 266 266 271 280 284 287 288 284 278 277 272 270 266 257
268 258 266 280 283 281 270 264 266 283 296 294 291 293 296 295 294 291 290 293 295 296 296 298 293 286 277 264 262 281 284 285 282 276 273 273 272 262
248 264 275 281 287 291 294 298 301 308 298 289 290 291 291 290 290 293 298 297 296 297 296 295 294 291 291 290 276 249 279 287 287 282 276 273 273 270
255 282 285 281 283 290 295 301 306 309 300 297 292 290 290 290 291 293 295 298 298 299 297 295 295 295 294 297 297 286 251 274 285 286 285 280 273 262
268 287 296 292 290 292 294 297 301 303 303 295 294 297 293 291 293 295 294 294 289 290 293 296 300 284 281 281 281 283 283 244 262 283 289 281 277 271
284 286 298 298 290 286 285 287 289 296 296 290 298 298 295 293 293 293 295 295 292 290 293 295 295 287 281 281 286 290 289 285 251 244 259 272 284 283
292 285 279 281 285 285 287 288 292 297 301 300 300 299 297 297 294 293 294 295 298 300 301 300 298 292 289 289 291 295 298 298 296 295 289 228 223 241